Location: Windsor
(43.2292°N, 89.3015°W)
Time: 18:00:33
(UTC+00:00)

AO-7 - Pass Details

Date: 29 June 2022
Orbit: 1440 x 1458 km, 101.9° (Epoch: 09 August)

Event Time Altitude Azimuth Distance (km) Brightness Sun altitude
Rises 09:35:04 0° 24° (NNE) 4,557 ? -7.3°
Reaches altitude 10° 09:38:10 10° 32° (NNE) 3,578 ? -6.9°
Maximum altitude 09:45:46 38° 98° (E) 2,100 ? -5.8°
Drops below altitude 10° 09:53:20 10° 164° (SSE) 3,571 ? -4.8°
Sets 09:56:24 0° 172° (S) 4,547 ? -4.3°
